Regional Weather Roundup
Issued by NWS

Home | Current Version | Previous Version | Text Only | Print | Product List | Glossary On
Versions: 1 2 3 4 5 6 7 8 9 10 11 12 13 14 15 16 17 18 19 20 21 22 23 24 25 26 27
000
ASUS45 KREV 210010
RWRNV
NEVADA REGIONAL WEATHER ROUNDUP
NATIONAL WEATHER SERVICE RENO NV
500 PM PDT WED SEP 20 2017

NOTE: "FAIR" INDICATES FEW OR NO CLOUDS BELOW 12,000 FEET WITH NO
SIGNIFICANT WEATHER AND/OR OBSTRUCTIONS TO VISIBILITY.

NVZ001-003-004-210100-
WESTERN NEVADA

CITY           SKY/WX    TMP DP  RH WIND       PRES   REMARKS
RENO           PTSUNNY   62  40  44 W15       29.80F
6HR MIN TEMP:  62; 6HR MAX TEMP:  71;

CARSON CITY    CLOUDY    63  39  42 SW13G23   29.81F
MINDEN         CLOUDY    64  39  39 W23G29    29.80F
FALLON         CLOUDY    70  33  25 W22G28    29.71F
6HR MIN TEMP:  68; 6HR MAX TEMP:  78;

LOVELOCK       CLOUDY    66  35  31 W32       29.71S
6HR MIN TEMP:  64; 6HR MAX TEMP:  72;

HAWTHORNE      MOSUNNY   79  34  19 SW15G21   29.69S
$$

NVZ002-CAZ072-073-210100-
NORTHERN AND CENTRAL SIERRA

CITY           SKY/WX    TMP DP  RH WIND       PRES   REMARKS
S. LAKE TAHOE  LGT RAIN  50  42  74 SW14G35   29.86F
6HR MIN TEMP:  50; 6HR MAX TEMP:  59; 6HR PCP: TRACE;

TRUCKEE        CLOUDY    52  39  62 S12       29.86F
SQUAW VLY 8000   N/A     37  37 100 SW14        N/A
SUSANVILLE     SUNNY     57  43  58 W8        29.79F
BLUE CANYON    HVY RAIN  48  48 100 S13G22    29.91F VSB 1/2
MAMMOTH LAKES  FAIR      65  32  29 W10G29    29.93F
6HR MIN TEMP:  65; 6HR MAX TEMP:  69;

BRIDGEPORT     FAIR      57  35  43 SW26G39   29.86S
$$

NVZ030-031-036-210100-
NORTHERN NEVADA

CITY           SKY/WX    TMP DP  RH WIND       PRES   REMARKS
ELKO           LGT RAIN  63  33  32 W23G32    29.73F
6HR MIN TEMP:  62; 6HR MAX TEMP:  70; 6HR PCP: TRACE;

WINNEMUCCA     CLOUDY    62  36  37 W18G26    29.74R
6HR MIN TEMP:  62; 6HR MAX TEMP:  73;

WENDOVER       CLOUDY    70  32  24 NE9       29.65F
$$

NVZ035-037-210100-
CENTRAL NEVADA

CITY           SKY/WX    TMP DP  RH WIND       PRES   REMARKS
ELY            SUNNY     73  29  19 SW20G28   29.77F
6HR MIN TEMP:  64; 6HR MAX TEMP:  75;

EUREKA           N/A     73  31  21 W14       29.72F
6HR MIN TEMP:  63; 6HR MAX TEMP:  77;

$$

NVZ013-014-210100-
SOUTH CENTRAL NEVADA

CITY           SKY/WX    TMP DP  RH WIND       PRES   REMARKS
TONOPAH        MOSUNNY   79  33  19 S17G25    29.76F
6HR MIN TEMP:  67; 6HR MAX TEMP:  81;

$$

NVZ017-020-022-210100-
SOUTHERN NEVADA

CITY           SKY/WX    TMP DP  RH WIND       PRES   REMARKS
LAS VEGAS      SUNNY     89  36  15 SW21G31   29.67R
6HR MIN TEMP:  82; 6HR MAX TEMP:  92;

N. LAS VEGAS   SUNNY     89  33  13 S22G29    29.64F
6HR MIN TEMP:  80; 6HR MAX TEMP:  91;

NELLIS AFB     SUNNY     91  37  15 S23G30    29.63F
6HR MIN TEMP:  83; 6HR MAX TEMP:  93;

HENDERSON      SUNNY     88  36  15 SW22G29   29.71R
6HR MIN TEMP:  83; 6HR MAX TEMP:  91;

MERCURY        SUNNY     83  39  21 SW20G30   29.72F
6HR MIN TEMP:  75; 6HR MAX TEMP:  87;

$$




USA.gov is the U.S. government's official web portal to all federal, state and local government web resources and services.